Wetbulb
67.47 65.94 66.47 69.32 69.46 70.40 69.16 70.59 68.66 73.25 72.05 71.71 74.09 75.08 75.44 73.80 73.25 74.53 73.48 73.66 73.67 70.49
66.68 67.50 66.96 69.45 70.39 70.46 72.11 71.84 74.34 68.66 68.34 68.91 70.01 73.71 74.46 72.68 73.04 73.62 73.57 74.01 73.66 71.54
64.96 66.38 67.23 69.14 69.53 70.42 72.46 73.24 73.37 69.22 66.37 65.53 69.74 70.57 72.57 72.46 73.04 72.56 70.45 69.99 72.19 71.25
63.44 64.58 65.51 66.84 67.76 69.59 71.52 71.26 69.68 69.24 68.96 68.27 69.26 68.04 68.38 68.80 68.39 68.12 70.39 71.15 69.01 69.37
62.19 63.84 64.04 64.61 65.69 67.50 67.96 68.74 67.40 64.83 65.35 63.23 62.68 62.99 62.92 63.71 64.31 65.28 66.32 66.77 68.64 67.95
59.60 60.77 63.66 63.93 64.15 64.76 65.31 65.70 65.05 63.87 62.95 62.41 61.82 62.17 63.57 63.34 63.10 64.26 64.93 65.35 65.97 67.18
58.23 58.98 59.71 60.87 60.47 60.73 63.45 63.73 64.45 63.50 62.28 61.60 61.49 61.82 62.45 62.72 62.72 63.12 62.96 65.41 65.99 65.59
57.13 58.28 58.35 59.49 57.53 57.96 57.27 61.73 62.91 63.45 62.84 62.84 61.99 61.41 62.87 62.28 62.90 64.13 63.63 65.18 63.30 65.87
55.03 55.67 56.93 57.72 59.51 57.24 56.17 58.84 61.19 62.03 61.43 63.20 61.96 52.82 52.27 61.19 64.40 64.65 64.12 63.80 63.71 64.09
53.75 53.92 54.82 56.50 57.14 56.80 55.80 56.61 59.01 61.26 61.95 62.86 64.35 51.53 48.68 50.37 65.57 64.28 64.06 65.58 65.26 63.83
52.60 52.77 53.92 54.67 56.03 58.58 60.33 58.57 58.32 58.15 59.63 62.33 63.17 50.23 47.28 47.82 62.09 65.00 66.25 66.27 65.91 65.32
50.95 51.43 53.18 53.61 56.28 57.59 58.05 59.89 61.21 61.33 62.21 62.65 62.64 49.17 46.05 49.54 58.64 62.60 65.50 66.05 66.31 65.79
50.07 51.05 52.26 54.19 55.55 56.45 56.85 57.01 57.92 59.44 62.27 58.84 63.27 51.86 46.02 50.10 61.86 62.16 62.26 65.58 66.06 52.94
49.60 49.06 49.97 51.58 54.38 55.73 54.92 55.00 57.39 58.19 60.42 62.28 61.98 62.32 46.47 44.83 61.62 61.93 62.36 62.13 63.13 64.42
MSLP
1002.95 1002.63 1002.19 1001.84 1001.63 1000.96 1000.30 998.81 1000.44 999.69 1001.28 1002.70 1001.50 1000.77 1001.56 1002.73 1003.97 1004.36 1004.91 1005.88 1006.22 1006.28
1002.66 1002.39 1002.03 1001.66 1001.31 1000.40 1000.20 998.97 999.13 1001.38 1002.69 1002.62 1003.84 1001.81 1002.05 1002.22 1003.21 1003.45 1004.36 1005.18 1005.95 1006.27
1002.04 1001.95 1001.63 1001.27 1000.91 1000.44 1000.00 999.10 999.14 999.60 1000.80 1003.07 1003.26 1001.22 1001.70 1001.89 1003.01 1002.93 1003.78 1004.85 1005.53 1006.29
1001.62 1001.55 1001.41 1001.12 1000.72 1000.24 1000.07 999.69 999.75 999.44 1000.29 1001.71 1000.09 1001.73 1002.25 1003.50 1002.78 1002.76 1003.25 1004.32 1005.08 1005.90
1002.10 1001.27 1001.04 1001.04 1000.76 1000.29 1000.23 999.98 1000.04 1000.48 1000.34 1001.45 1001.29 1001.68 1002.01 1002.56 1001.53 1002.39 1003.74 1003.68 1004.38 1004.82
1002.31 1002.07 1001.15 1000.91 1000.48 1000.28 999.95 999.64 999.53 999.39 999.50 999.84 1000.20 1000.60 1000.78 1000.91 1001.14 1002.34 1003.32 1003.54 1004.01 1004.39
1002.41 1002.18 1001.89 1001.69 1001.43 1001.24 1000.44 999.94 999.46 999.19 999.18 999.20 999.22 999.66 1000.39 1000.98 1001.55 1002.38 1002.85 1003.50 1004.11 1004.01
1002.26 1002.03 1001.72 1001.39 1001.80 1001.13 1001.97 1001.14 999.61 999.70 999.27 999.50 999.48 999.70 1000.50 1001.06 1001.55 1002.23 1003.06 1003.49 1003.43 1003.79
1001.81 1001.69 1001.36 1001.11 1001.10 1001.41 1001.31 1001.55 1000.16 999.72 999.34 999.34 999.23 999.49 1000.21 1000.69 1001.16 1001.99 1002.55 1002.75 1003.00 1003.43
1001.34 1000.96 1000.88 1000.65 1000.47 1000.79 1001.01 1001.73 1001.27 1000.40 1000.21 999.61 999.24 999.74 1001.17 1000.83 1000.98 1001.48 1001.88 1001.94 1002.50 1003.05
1000.75 1000.30 1000.00 999.98 999.77 999.74 999.77 1000.04 999.99 999.53 999.29 999.41 999.30 999.38 1000.02 1000.89 1001.39 1001.21 1001.30 1001.44 1002.04 1002.50
1000.60 1000.03 999.11 999.00 999.05 999.12 999.19 998.89 998.61 998.41 998.58 998.67 998.82 999.40 999.94 1000.67 1001.07 1001.25 1000.96 1001.03 1001.38 1001.97
1000.04 999.37 998.65 998.27 998.28 998.46 998.49 998.27 998.01 997.75 997.62 997.64 997.67 998.15 999.08 1000.13 1000.23 1000.61 1000.61 1000.62 1000.67 1001.34
999.59 999.34 999.03 998.65 998.05 997.83 997.87 997.80 997.39 997.12 996.83 996.75 996.98 997.46 998.61 999.48 999.66 999.35 999.56 999.61 999.69 999.99
Wind_Speed
12 11 11 13 13 13 14 17 3 7 18 20 17 16 14 12 12 11 10 11 9 10
11 13 13 14 14 12 16 17 12 15 9 7 22 14 14 12 11 8 8 7 9 10
9 12 13 12 14 15 14 16 16 3 12 21 23 17 14 8 10 9 8 9 9 10
11 10 12 12 14 13 12 14 11 6 15 24 17 5 5 5 7 8 9 10 9 12
13 13 8 8 11 12 14 14 10 11 13 15 13 10 10 9 7 6 13 10 12 13
10 11 13 9 10 8 7 13 14 14 13 13 14 14 13 9 7 9 10 11 10 11
11 12 10 12 6 11 10 9 10 11 12 11 11 12 11 11 10 11 11 10 11 11
14 14 14 9 7 3 11 17 12 13 11 10 9 9 10 7 10 10 10 11 10 8
16 16 15 15 7 4 7 20 15 12 10 12 11 10 15 12 10 12 12 10 10 9
18 18 17 15 14 13 14 18 18 15 11 11 11 8 10 11 11 11 11 12 10 10
19 20 18 17 16 13 12 16 19 21 15 14 12 14 12 14 11 11 14 13 13 13
24 24 21 17 15 13 13 13 12 15 18 17 15 12 13 13 10 16 14 14 15 14
20 21 21 17 14 13 14 15 14 16 15 16 15 13 13 14 12 17 13 14 14 14
18 17 17 17 16 15 14 16 15 17 15 15 14 14 15 16 15 14 13 13 13 12
Wind_Direction
276 265 259 250 252 266 253 258 54 273 223 223 221 199 184 196 205 210 218 216 233 248
280 264 269 272 273 258 250 271 239 191 190 222 275 223 204 202 194 200 213 226 222 239
290 288 280 266 257 262 271 266 274 161 139 218 241 220 213 186 199 193 213 226 217 234
288 276 288 274 266 262 258 255 263 164 131 211 182 167 154 297 289 260 210 232 238 233
313 300 259 265 268 262 250 248 226 225 199 203 199 199 208 209 190 220 257 235 228 245
309 310 308 307 259 272 279 226 224 215 214 203 201 199 203 207 210 218 242 244 251 246
290 299 287 303 332 341 284 274 249 208 203 197 189 185 196 198 206 220 228 231 236 240
287 278 285 255 259 288 308 295 226 226 210 214 204 193 200 187 194 204 222 217 220 220
282 280 274 280 236 213 254 276 301 275 241 233 222 207 178 187 191 193 200 207 198 230
279 271 268 259 265 195 200 248 264 262 254 246 223 255 220 208 203 198 203 193 197 208
277 274 264 262 250 255 234 208 226 240 240 242 229 206 196 196 231 221 206 202 203 206
269 271 263 253 255 245 249 251 245 232 234 231 231 202 183 184 206 236 228 211 206 204
274 277 273 270 263 250 250 251 247 241 237 234 235 218 185 183 212 222 226 229 220 207
266 264 270 283 268 250 246 251 247 244 244 238 229 222 200 194 222 228 218 224 222 219